This is the latest recevied weather packets stored in our database for station/object SQ7ACP-3. If no packets are shown the sender has not sent any weather packets the latest 10 day(s).
| Time | Temp. | Humidity | Pressure | Rain* | Wind** | Luminosity | Snow |
|---|---|---|---|---|---|---|---|
| 1777660823 | 15.56° C | 45% | 1023.9 hPa | 0 mm | - | - | - |
| 1777660212 | 16.11° C | 44% | 1023.8 hPa | 0 mm | - | - | - |
| 1777659611 | 16.67° C | 43% | 1023.7 hPa | 0 mm | - | - | - |
| 1777659011 | 16.67° C | 42% | 1023.6 hPa | 0 mm | - | - | - |
| 1777658411 | 17.22° C | 41% | 1023.5 hPa | 0 mm | - | - | - |
| 1777657811 | 17.22° C | 41% | 1023.5 hPa | 0 mm | - | - | - |
| 1777657198 | 17.78° C | 40% | 1023.4 hPa | 0 mm | - | - | - |
| 1777656589 | 17.78° C | 39% | 1023.3 hPa | 0 mm | - | - | - |
| 1777655986 | 18.33° C | 38% | 1023.3 hPa | 0 mm | - | - | - |
| 1777655374 | 18.33° C | 38% | 1023.3 hPa | 0 mm | - | - | - |
| 1777654769 | 18.33° C | 38% | 1023.3 hPa | 0 mm | - | - | - |
| 1777654162 | 18.89° C | 38% | 1023.3 hPa | 0 mm | - | - | - |
| 1777653561 | 18.89° C | 37% | 1023.3 hPa | 0 mm | - | - | - |
| 1777652951 | 18.89° C | 36% | 1023.3 hPa | 0 mm | - | - | - |
| 1777652336 | 18.89° C | 36% | 1023.4 hPa | 0 mm | - | - | - |
| 1777651724 | 19.44° C | 37% | 1023.4 hPa | 0 mm | - | - | - |
| 1777650516 | 19.44° C | 36% | 1023.6 hPa | 0 mm | - | - | - |
| 1777649905 | 19.44° C | 34% | 1023.6 hPa | 0 mm | - | - | - |
| 1777649291 | 19.44° C | 36% | 1023.6 hPa | 0 mm | - | - | - |
| 1777648679 | 20° C | 34% | 1023.5 hPa | 0 mm | - | - | - |
| 1777648073 | 19.44° C | 34% | 1023.6 hPa | 0 mm | - | - | - |
| 1777646856 | 20° C | 36% | 1023.7 hPa | 0 mm | - | - | - |
| 1777646251 | 19.44° C | 36% | 1023.7 hPa | 0 mm | - | - | - |
| 1777645639 | 20.56° C | 35% | 1023.8 hPa | 0 mm | - | - | - |
| 1777645029 | 20° C | 35% | 1023.9 hPa | 0 mm | - | - | - |
* Rain latest hour (hover to see other rain measurements)
** Current wind speed in m/s (hover to see current wind gust speed)